Weather History for Mansfield, OH

Change the Weather History Date:

Wednesday, December 19, 2012

  Actual Average Record
Temperature  
Mean Temperature 36 °F 28 °F  
Max Temperature 41 °F 35 °F 57 °F (1923)
Min Temperature 31 °F 22 °F -7 °F (1922)
Degree Days  
Heating Degree Days 29 37  
Month to date heating degree days 432 641  
Since 1 July heating degree days 1761 1922  
Cooling Degree Days 0 0  
Month to date cooling degree days 0 0  
Year to date cooling degree days 955 632  
Moisture  
Dew Point 34 °F    
Average Humidity 86    
Maximum Humidity 92    
Minimum Humidity 79    
Precipitation  
Precipitation T in 0.10 in 1.13 in (2008)
Month to date precipitation 2.02 2.04  
Year to date precipitation 38.32 42.94  
Snow  
Snow 0.00 in 0.40 in - ()
Month to date snowfall T 5.8  
Since 1 July snowfall 2.6 8.5  
Snow Depth 0.00 in    
Sea Level Pressure  
Sea Level Pressure 29.99 in    
Wind  
Wind Speed 6 mph (West)    
Max Wind Speed 16 mph    
Max Gust Speed 23 mph    
Visibility 8 miles    
Events      
T = Trace of Precipitation, MM = Missing Value Source: NWS Daily Summary

Daily Weather History Graph

Daily Weather History Graph

Search for Another Location

Airport:

Trip Planner

Search our weather history database for the weather conditions in past years. The results will help you decide how hot, cold, wet, or windy it might be!

Date:

Astronomy

Dec. 19, 2012 Rise Set
Actual Time 7:50 AM EST 5:04 PM EST
Civil Twilight 7:19 AM EST 5:35 PM EST
Nautical Twilight 6:44 AM EST 6:10 PM EST
Astronomical Twilight 6:11 AM EST 6:43 PM EST
Moon 11:56 AM EST (12/19) No Moon Set
Length of Visible Light 10h 16m
Length of Day
9h 14m
Waxing Crescent, 45% of the Moon is Illuminated
Dec 19
Waxing Crescent
Dec 20
First Quarter
Dec 28
Full
Jan 4
Last Quarter
Jan 11
New

Hourly Weather History & Observations

Time (EST) Temp. Windchill Dew Point Humidity Pressure Visibility Wind Dir Wind Speed Gust Speed Precip Events Conditions
12:52 AM 39.0 °F 32.3 °F 36.0 °F 89% 29.74 in 10.0 mi SSW 10.4 mph - 0.00 in   Overcast
1:52 AM 39.9 °F 34.5 °F 35.1 °F 83% 29.75 in 10.0 mi SW 8.1 mph - N/A   Overcast
2:25 AM 39.2 °F 32.5 °F 35.6 °F 87% 29.75 in 10.0 mi WSW 10.4 mph - N/A   Mostly Cloudy
2:52 AM 39.9 °F 34.5 °F 36.0 °F 86% 29.79 in 10.0 mi WSW 8.1 mph - N/A   Overcast
3:52 AM 39.9 °F 34.5 °F 36.0 °F 86% 29.80 in 10.0 mi West 8.1 mph - N/A   Overcast
4:52 AM 39.9 °F 33.9 °F 36.0 °F 86% 29.83 in 10.0 mi West 9.2 mph - N/A   Overcast
5:10 AM 39.2 °F 33.0 °F 35.6 °F 87% 29.81 in 9.0 mi West 9.2 mph - N/A   Overcast
5:52 AM 39.0 °F 33.4 °F 36.0 °F 89% 29.86 in 8.0 mi WNW 8.1 mph - N/A   Overcast
6:52 AM 39.0 °F 34.8 °F 36.0 °F 89% 29.91 in 7.0 mi Variable 5.8 mph - N/A   Overcast
7:52 AM 37.9 °F 33.5 °F 36.0 °F 93% 29.95 in 6.0 mi West 5.8 mph - N/A   Overcast
8:52 AM 37.9 °F 33.5 °F 36.0 °F 93% 29.98 in 4.0 mi West 5.8 mph - N/A   Overcast
9:03 AM 37.4 °F 33.8 °F 35.6 °F 93% 29.96 in 4.0 mi West 4.6 mph - N/A   Overcast
9:52 AM 39.0 °F 34.8 °F 36.0 °F 89% 30.01 in 4.0 mi West 5.8 mph - N/A   Overcast
10:52 AM 39.0 °F 35.7 °F 36.0 °F 89% 30.03 in 5.0 mi West 4.6 mph - N/A   Overcast
11:52 AM 39.0 °F 34.8 °F 36.0 °F 89% 30.04 in 5.0 mi West 5.8 mph - N/A   Overcast
12:28 PM 39.2 °F 35.9 °F 35.6 °F 87% 30.03 in 5.0 mi WNW 4.6 mph - N/A   Overcast
12:52 PM 39.0 °F 34.0 °F 35.1 °F 86% 30.06 in 8.0 mi West 6.9 mph - N/A   Overcast
1:52 PM 39.9 °F 35.8 °F 35.1 °F 83% 30.06 in 8.0 mi NW 5.8 mph - N/A   Overcast
2:52 PM 39.9 °F 37.8 °F 34.0 °F 79% 30.06 in 9.0 mi NNW 3.5 mph - N/A   Overcast
3:52 PM 39.9 °F - 33.1 °F 77% 30.09 in 10.0 mi Calm Calm - N/A   Overcast
4:52 PM 39.0 °F 35.7 °F 33.1 °F 79% 30.11 in 9.0 mi North 4.6 mph - N/A   Overcast
5:24 PM 37.4 °F 34.9 °F 32.0 °F 81% 30.09 in 10.0 mi NNE 3.5 mph - N/A   Scattered Clouds
5:52 PM 37.0 °F - 33.1 °F 86% 30.13 in 9.0 mi Calm Calm - N/A   Scattered Clouds
6:02 PM 35.6 °F - 33.8 °F 93% 30.10 in 10.0 mi Calm Calm - N/A   Mostly Cloudy
6:31 PM 33.8 °F - 32.0 °F 93% 30.10 in 9.0 mi Calm Calm - N/A   Scattered Clouds
6:52 PM 35.1 °F - 32.0 °F 89% 30.14 in 8.0 mi Calm Calm - N/A   Clear
7:52 PM 32.0 °F 27.5 °F 30.0 °F 92% 30.14 in 9.0 mi East 4.6 mph - N/A   Clear
8:52 PM 35.1 °F 31.0 °F 30.9 °F 85% 30.12 in 10.0 mi East 4.6 mph - N/A   Clear
9:52 PM 34.0 °F 31.0 °F 30.9 °F 89% 30.13 in 9.0 mi East 3.5 mph - N/A   Mostly Cloudy
10:52 PM 34.0 °F 28.8 °F 30.9 °F 89% 30.12 in 8.0 mi East 5.8 mph - N/A   Clear
11:52 PM 35.1 °F 27.9 °F 32.0 °F 89% 30.09 in 8.0 mi East 9.2 mph - N/A   Mostly Cloudy